North Plainfield Burying Ground, New Jersey, United States
Lat: 40.64N, Lon: 74.46W
Wx Zone: NJZ010
Local Info
Past Weather Observations for Today

NOTE: This archive is for the closest National Weather Service station to North Plainfield Burying Ground. Information may differ from the station used for current weather conditions.

Click here for Long-term Archive

Time Weather Temperature Dewpoint Humidity Pressure Winds Precip Visibility
15:53
Clear
70°F / 21°C 54°F / 12°C 57% 29.59 in
(1002 mb)
SW 8.1 mph
(SW 13 kph)
- 10SM
14:53
Partly Cloudy
72°F / 22°C 55°F / 13°C 57% 29.56 in
(1001 mb)
SSE 18.4 mph
(SSE 30 kph)
- 10SM
13:53
Mostly Cloudy
73°F / 23°C 57°F / 14°C 57% 29.56 in
(1001 mb)
SSE 10.4 mph
(SSE 17 kph)
- 10SM
12:53
Partly Cloudy
72°F / 22°C 57°F / 14°C 61% 29.56 in
(1001 mb)
SW 12.7 mph
(SW 20 kph)
- 10SM
11:53
Mostly Cloudy
70°F / 21°C 57°F / 14°C 64% 29.59 in
(1002 mb)
Calm - 10SM
11:13
Overcast
72°F / 22°C 59°F / 15°C 65% 29.62 in
(1003 mb)
SW 9.2 mph
(SW 15 kph)
- 10SM
10:53
Overcast
70°F / 21°C 59°F / 15°C 69% 29.62 in
(1003 mb)
Calm - 10SM
09:53
Overcast
68°F / 20°C 61°F / 16°C 78% 29.65 in
(1004 mb)
S 10.4 mph
(S 17 kph)
- 10SM
08:53
Overcast
66°F / 19°C 61°F / 16°C 83% 29.65 in
(1004 mb)
SSE 5.8 mph
(SSE 9 kph)
- 10SM
07:53
Overcast
64°F / 18°C 61°F / 16°C 88% 29.65 in
(1004 mb)
S 11.5 mph
(S 19 kph)
- 10SM
06:53
Overcast
64°F / 18°C 61°F / 16°C 88% 29.65 in
(1004 mb)
S 8.1 mph
(S 13 kph)
0.01 in
(0.25 mm)
10SM
06:49
Overcast
64°F / 18°C 61°F / 16°C 88% 29.65 in
(1004 mb)
S 9.2 mph
(S 15 kph)
0.01 in
(0.25 mm)
10SM
05:53
Overcast
Light Rain
63°F / 17°C 61°F / 16°C 94% 29.65 in
(1004 mb)
S 16.1 mph
(S 26 kph)
0.05 in
(1.27 mm)
4SM
05:38
Overcast
Rain
63°F / 17°C 61°F / 16°C 94% 29.65 in
(1004 mb)
S 10.4 mph
(S 17 kph)
0.04 in
(1.02 mm)
2 1/2SM
05:01
Overcast
Light Rain
63°F / 17°C 61°F / 16°C 94% 29.68 in
(1005 mb)
SSE 13.8 mph
(SSE 22 kph)
0.00 in
(0.00 mm)
3SM
04:53
Overcast
Light Rain
63°F / 17°C 59°F / 15°C 88% 29.68 in
(1005 mb)
S 13.8 mph
(S 22 kph)
0.06 in
(1.52 mm)
3SM
04:38
Overcast
Light Rain
63°F / 17°C 59°F / 15°C 88% 29.68 in
(1005 mb)
SSE 16.1 mph
(SSE 26 kph)
0.05 in
(1.27 mm)
5SM
03:53
Overcast
Heavy Rain
61°F / 16°C 57°F / 14°C 88% 29.71 in
(1006 mb)
SSE 8.1 mph
(SSE 13 kph)
0.19 in
(4.83 mm)
3SM
02:53
Overcast
Light Rain
57°F / 14°C 55°F / 13°C 94% 29.74 in
(1007 mb)
SE 11.5 mph
(SE 19 kph)
0.12 in
(3.05 mm)
4SM
02:24
Overcast
Light Rain
57°F / 14°C 54°F / 12°C 88% 29.8 in
(1009 mb)
SE 8.1 mph
(SE 13 kph)
0.07 in
(1.78 mm)
4SM
01:53
Overcast
Rain
45°F / 7°C 43°F / 6°C 93% 29.83 in
(1010 mb)
NW 3.5 mph
(NW 6 kph)
0.06 in
(1.52 mm)
2 1/2SM
01:51
Overcast
Rain
45°F / 7°C 43°F / 6°C 93% 29.83 in
(1010 mb)
Calm 0.05 in
(1.27 mm)
2SM
01:40
Overcast
Rain
45°F / 7°C 41°F / 5°C 87% 29.86 in
(1011 mb)
Calm 0.03 in
(0.76 mm)
1 3/4SM
01:36
Overcast
Rain
45°F / 7°C 41°F / 5°C 87% 29.86 in
(1011 mb)
N 3.5 mph
(N 6 kph)
0.02 in
(0.51 mm)
2 1/2SM
01:29
Overcast
Light Rain
45°F / 7°C 39°F / 4°C 81% 29.86 in
(1011 mb)
NW 4.6 mph
(NW 7 kph)
0.01 in
(0.25 mm)
3SM
00:53
Overcast
Light Rain
43°F / 6°C 37°F / 3°C 81% 29.89 in
(1012 mb)
NW 6.9 mph
(NW 11 kph)
0.00 in
(0.00 mm)
9SM
Time Weather Temperature Dewpoint Humidity Pressure Winds Precip Visibility


Weather for websites

WeatherForYou.com, LLC is not responsible for any damages or problems caused by this service. Current weather conditions are obtained from the closest station including government and personal stations which may have varying degrees of accuracy. Weather forecasts are derived from the NOAA NDFD. Like all things, this site belongs to Jesus Christ... He just trusts me to maintain it. If you have any questions or comments email webmaster@weatherforyou.com

Copyright © 2014, WeatherForYou.com LLC. All rights reserved.